This is the latest recevied weather packets stored in our database for station/object K6GKS. If no packets are shown the sender has not sent any weather packets the latest 10 day(s).
| Time | Temp. | Humidity | Pressure | Rain* | Wind** | Luminosity | Snow |
|---|---|---|---|---|---|---|---|
| 1787529782 | 35.56° C | 21% | 1009.5 hPa | 0 mm | - | - | - |
| 1787529603 | 35.56° C | 21% | 1009.3 hPa | 0 mm | - | - | - |
| 1787529422 | 35.56° C | 22% | 1009.3 hPa | 0 mm | - | - | - |
| 1787529243 | 35° C | 23% | 1009.5 hPa | 0 mm | - | - | - |
| 1787529062 | 35.56° C | 23% | 1009.5 hPa | 0 mm | - | - | - |
| 1787528882 | 35.56° C | 24% | 1009.4 hPa | 0 mm | - | - | - |
| 1787528702 | 35.56° C | 24% | 1009.5 hPa | 0 mm | - | - | - |
| 1787528522 | 35.56° C | 25% | 1009.5 hPa | 0 mm | - | - | - |
| 1787528342 | 35.56° C | 25% | 1009.5 hPa | 0 mm | - | - | - |
| 1787527982 | 35.56° C | 25% | 1009.5 hPa | 0 mm | - | - | - |
| 1787527802 | 35.56° C | 25% | 1009.6 hPa | 0 mm | - | - | - |
| 1787527622 | 35° C | 26% | 1009.5 hPa | 0 mm | - | - | - |
| 1787527443 | 35° C | 26% | 1009.6 hPa | 0 mm | - | - | - |
| 1787527262 | 35° C | 23% | 1009.5 hPa | 0 mm | - | - | - |
| 1787527082 | 35° C | 25% | 1009.5 hPa | 0 mm | - | - | - |
| 1787526903 | 35.56° C | 25% | 1009.5 hPa | 0 mm | - | - | - |
| 1787526722 | 35.56° C | 25% | 1009.5 hPa | 0 mm | - | - | - |
| 1787526543 | 35.56° C | 24% | 1009.5 hPa | 0 mm | - | - | - |
| 1787526362 | 35.56° C | 24% | 1009.5 hPa | 0 mm | - | - | - |
| 1787526003 | 36.67° C | 22% | 1009.7 hPa | 0 mm | - | - | - |
| 1787525823 | 36.67° C | 20% | 1009.6 hPa | 0 mm | - | - | - |
| 1787525642 | 36.67° C | 20% | 1009.8 hPa | 0 mm | - | - | - |
| 1787525462 | 36.11° C | 20% | 1009.6 hPa | 0 mm | - | - | - |
| 1787525282 | 35.56° C | 22% | 1009.7 hPa | 0 mm | - | - | - |
| 1787525103 | 35.56° C | 21% | 1009.9 hPa | 0 mm | - | - | - |
* Rain latest hour (hover to see other rain measurements)
** Current wind speed in m/s (hover to see current wind gust speed)